TimeEST,TemperatureF,Dew PointF,Humidity,Sea Level PressureIn,VisibilityMPH,Wind Direction,Wind SpeedMPH,Gust SpeedMPH,PrecipitationIn,Events,Conditions,WindDirDegrees,DateUTC
12:54 AM,46.0,28.0,50,29.92,10.0,NW,8.1,-,N/A,,Clear,320,2012-11-24 05:54:00
1:54 AM,44.1,27.0,51,29.91,10.0,NW,12.7,-,N/A,,Clear,310,2012-11-24 06:54:00
2:54 AM,39.9,27.0,60,29.93,10.0,WNW,8.1,-,N/A,,Clear,300,2012-11-24 07:54:00
3:54 AM,39.9,26.1,58,29.93,10.0,NW,9.2,-,N/A,,Clear,310,2012-11-24 08:54:00
4:54 AM,37.0,26.1,65,29.93,10.0,NW,8.1,-,N/A,,Clear,310,2012-11-24 09:54:00
5:54 AM,39.0,24.1,55,29.96,10.0,NW,15.0,21.9,N/A,,Clear,310,2012-11-24 10:54:00
6:54 AM,39.0,21.9,50,29.97,10.0,NW,13.8,-,N/A,,Clear,320,2012-11-24 11:54:00
7:54 AM,39.0,21.0,49,29.98,10.0,NW,12.7,-,N/A,,Clear,310,2012-11-24 12:54:00
8:54 AM,41.0,21.0,45,30.01,10.0,NNW,11.5,-,N/A,,Clear,330,2012-11-24 13:54:00
9:54 AM,43.0,19.9,40,30.02,10.0,NNW,10.4,19.6,N/A,,Clear,340,2012-11-24 14:54:00
10:54 AM,45.0,19.0,36,30.03,10.0,WNW,12.7,16.1,N/A,,Clear,290,2012-11-24 15:54:00
11:54 AM,46.0,18.0,33,30.01,10.0,WNW,15.0,-,N/A,,Clear,300,2012-11-24 16:54:00
12:54 PM,46.9,17.1,30,29.99,10.0,NW,10.4,20.7,N/A,,Clear,320,2012-11-24 17:54:00
1:54 PM,48.0,16.0,28,29.99,10.0,WNW,18.4,21.9,N/A,,Clear,300,2012-11-24 18:54:00
2:54 PM,46.9,12.9,25,29.99,10.0,NNW,13.8,20.7,N/A,,Clear,330,2012-11-24 19:54:00
3:54 PM,46.9,14.0,27,30.01,10.0,NNW,11.5,19.6,N/A,,Clear,330,2012-11-24 20:54:00
4:54 PM,44.1,16.0,32,30.03,10.0,NNW,9.2,-,N/A,,Clear,330,2012-11-24 21:54:00
5:54 PM,39.9,17.1,40,30.05,10.0,NNW,8.1,-,N/A,,Clear,330,2012-11-24 22:54:00
6:54 PM,37.9,15.1,39,30.08,10.0,NNW,9.2,-,N/A,,Clear,330,2012-11-24 23:54:00
7:54 PM,37.0,15.1,41,30.09,10.0,NNW,10.4,-,N/A,,Clear,340,2012-11-25 00:54:00
8:54 PM,35.1,16.0,46,30.10,10.0,NNW,12.7,24.2,N/A,,Clear,340,2012-11-25 01:54:00
9:54 PM,33.1,16.0,50,30.11,10.0,NNW,8.1,-,N/A,,Clear,330,2012-11-25 02:54:00
10:54 PM,32.0,16.0,52,30.12,10.0,NNW,4.6,-,N/A,,Clear,340,2012-11-25 03:54:00
11:54 PM,28.9,16.0,58,30.11,10.0,West,4.6,-,N/A,,Clear,270,2012-11-25 04:54:00